| time (UTC) | temp F | wind direction | speed MPH | gust MPH | rain 1hr in | rain 24hr in | rain mn in | humidity % | barometer mb |
| 20260505200514 | 82 | 253 | 2.0 | 19.0 | 0.00 | 0.00 | 0.00 | 36 | 1006.9 |
| 20260505200030 | 82 | 0 | 3.0 | 16.0 | 0.00 | 0.00 | 0.00 | 36 | 1006.9 |
| 20260505195513 | 82 | 250 | 2.0 | 13.0 | 0.00 | 0.00 | 0.00 | 39 | 1007.1 |
| 20260505195017 | 82 | 0 | 1.0 | 16.0 | 0.00 | 0.00 | 0.00 | 40 | 1007.1 |
| 20260505194537 | 82 | 0 | 3.0 | 16.0 | 0.00 | 0.00 | 0.00 | 39 | 1007.1 |
| 20260505194014 | 82 | 0 | 2.0 | 13.0 | 0.00 | 0.00 | 0.00 | 39 | 1007.2 |
| 20260505193513 | 82 | 182 | 4.0 | 13.0 | 0.00 | 0.00 | 0.00 | 39 | 1007.2 |
| 20260505193038 | 82 | 0 | 2.0 | 14.0 | 0.00 | 0.00 | 0.00 | 39 | 1007.3 |
| 20260505192514 | 82 | 279 | 1.0 | 14.0 | 0.00 | 0.00 | 0.00 | 40 | 1007.3 |
| 20260505192014 | 82 | 302 | 2.0 | 13.0 | 0.00 | 0.00 | 0.00 | 39 | 1007.0 |
| 20260505191547 | 82 | 0 | 3.0 | 14.0 | 0.00 | 0.00 | 0.00 | 36 | 1007.0 |
| 20260505191018 | 82 | 275 | 1.0 | 14.0 | 0.00 | 0.00 | 0.00 | 39 | 1007.1 |
| 20260505190513 | 82 | 0 | 3.0 | 18.0 | 0.00 | 0.00 | 0.00 | 35 | 1007.1 |
| 20260505190031 | 82 | 0 | 4.0 | 18.0 | 0.00 | 0.00 | 0.00 | 39 | 1007.4 |
| 20260505185511 | 82 | 0 | 2.0 | 20.0 | 0.00 | 0.00 | 0.00 | 38 | 1007.4 |
| 20260505185014 | 82 | 0 | 2.0 | 20.0 | 0.00 | 0.00 | 0.00 | 37 | 1007.5 |
| 20260505184533 | 82 | 302 | 3.0 | 23.0 | 0.00 | 0.00 | 0.00 | 38 | 1007.6 |
| 20260505184015 | 81 | 258 | 2.0 | 23.0 | 0.00 | 0.00 | 0.00 | 38 | 1007.7 |
| 20260505183513 | 81 | 294 | 6.0 | 23.0 | 0.00 | 0.00 | 0.00 | 38 | 1007.9 |
| 20260505183030 | 81 | 0 | 3.0 | 18.0 | 0.00 | 0.00 | 0.00 | 38 | 1007.8 |
| 20260505182513 | 81 | 238 | 4.0 | 18.0 | 0.00 | 0.00 | 0.00 | 39 | 1007.8 |
| 20260505182013 | 81 | 0 | 1.0 | 8.0 | 0.00 | 0.00 | 0.00 | 40 | 1007.9 |
| 20260505181531 | 81 | 0 | 1.0 | 15.0 | 0.00 | 0.00 | 0.00 | 40 | 1008.0 |
| 20260505181014 | 81 | 227 | 2.0 | 15.0 | 0.00 | 0.00 | 0.00 | 41 | 1008.1 |
| 20260505180512 | 81 | 254 | 1.0 | 15.0 | 0.00 | 0.00 | 0.00 | 40 | 1008.1 |
| 20260505180042 | 81 | 0 | 0.0 | 16.0 | 0.00 | 0.00 | 0.00 | 42 | 1008.1 |
| 20260505175512 | 81 | 0 | 1.0 | 16.0 | 0.00 | 0.00 | 0.00 | 41 | 1008.1 |
| 20260505175013 | 80 | 223 | 3.0 | 25.0 | 0.00 | 0.00 | 0.00 | 39 | 1008.2 |
| 20260505174539 | 80 | 306 | 2.0 | 25.0 | 0.00 | 0.00 | 0.00 | 41 | 1008.3 |
| 20260505174013 | 79 | 0 | 0.0 | 19.0 | 0.00 | 0.00 | 0.00 | 44 | 1008.2 |
| 20260505173514 | 79 | 0 | 3.0 | 21.0 | 0.00 | 0.00 | 0.00 | 42 | 1008.2 |
| 20260505173031 | 79 | 240 | 4.0 | 22.0 | 0.00 | 0.00 | 0.00 | 42 | 1008.4 |
| 20260505172512 | 80 | 230 | 4.0 | 22.0 | 0.00 | 0.00 | 0.00 | 41 | 1008.3 |
| 20260505172014 | 81 | 227 | 1.0 | 8.0 | 0.00 | 0.00 | 0.00 | 45 | 1008.3 |
| 20260505171534 | 80 | 0 | 0.0 | 15.0 | 0.00 | 0.00 | 0.00 | 45 | 1008.5 |
| 20260505171016 | 80 | 0 | 1.0 | 15.0 | 0.00 | 0.00 | 0.00 | 45 | 1008.6 |
| 20260505170513 | 79 | 0 | 2.0 | 15.0 | 0.00 | 0.00 | 0.00 | 46 | 1008.7 |
| 20260505170032 | 79 | 0 | 2.0 | 17.0 | 0.00 | 0.00 | 0.00 | 46 | 1008.6 |
| 20260505165514 | 78 | 225 | 2.0 | 17.0 | 0.00 | 0.00 | 0.00 | 49 | 1008.8 |
| 20260505165013 | 78 | 0 | 0.0 | 21.0 | 0.00 | 0.00 | 0.00 | 48 | 1008.9 |
| 20260505164530 | 78 | 0 | 5.0 | 21.0 | 0.00 | 0.00 | 0.00 | 48 | 1009.2 |
| 20260505164013 | 78 | 0 | 0.0 | 17.0 | 0.00 | 0.00 | 0.00 | 47 | 1009.2 |
| 20260505163514 | 78 | 252 | 1.0 | 18.0 | 0.00 | 0.00 | 0.00 | 47 | 1009.4 |
| 20260505163038 | 78 | 207 | 4.0 | 18.0 | 0.00 | 0.00 | 0.00 | 47 | 1009.3 |
| 20260505162513 | 77 | 222 | 0.0 | 18.0 | 0.00 | 0.00 | 0.00 | 49 | 1009.6 |
| 20260505162015 | 76 | 0 | 3.0 | 18.0 | 0.00 | 0.00 | 0.00 | 47 | 1009.6 |
| 20260505161530 | 77 | 304 | 8.0 | 17.0 | 0.00 | 0.00 | 0.00 | 47 | 1009.6 |
| 20260505161014 | 77 | 337 | 6.0 | 17.0 | 0.00 | 0.00 | 0.00 | 51 | 1009.7 |
| 20260505160513 | 77 | 0 | 2.0 | 18.0 | 0.00 | 0.00 | 0.00 | 48 | 1009.7 |
| 20260505153042 | 75 | 298 | 3.0 | 17.0 | 0.00 | 0.00 | 0.00 | 51 | 1009.6 |
| 20260505152516 | 75 | 0 | 2.0 | 18.0 | 0.00 | 0.00 | 0.00 | 52 | 1009.7 |
| 20260505152013 | 75 | 300 | 4.0 | 18.0 | 0.00 | 0.00 | 0.00 | 51 | 1009.8 |
| 20260505151537 | 75 | 335 | 7.0 | 17.0 | 0.00 | 0.00 | 0.00 | 50 | 1009.8 |
| 20260505151012 | 75 | 0 | 3.0 | 13.0 | 0.00 | 0.00 | 0.00 | 50 | 1009.8 |
| 20260505150515 | 75 | 192 | 1.0 | 12.0 | 0.00 | 0.00 | 0.00 | 53 | 1009.8 |
| 20260505140511 | 71 | 0 | 0.0 | 10.0 | 0.00 | 0.00 | 0.00 | 59 | 1010.2 |
| 20260505125014 | 65 | 0 | 0.0 | 0.0 | 0.00 | 0.00 | 0.00 | 68 | 1010.4 |
| 20260505124536 | 65 | 0 | 0.0 | 0.0 | 0.00 | 0.00 | 0.00 | 68 | 1010.4 |
| 20260505124014 | 64 | 0 | 0.0 | 1.0 | 0.00 | 0.00 | 0.00 | 68 | 1010.4 |
| 20260505123517 | 64 | 0 | 0.0 | 4.0 | 0.00 | 0.00 | 0.00 | 69 | 1010.4 |
| 20260505123052 | 63 | 0 | 1.0 | 4.0 | 0.00 | 0.00 | 0.00 | 70 | 1010.4 |
| 20260505122515 | 63 | 0 | 0.0 | 0.0 | 0.00 | 0.00 | 0.00 | 72 | 1010.4 |
| 20260505122011 | 62 | 0 | 0.0 | 0.0 | 0.00 | 0.00 | 0.00 | 73 | 1010.5 |
| 20260505121534 | 62 | 0 | 0.0 | 0.0 | 0.00 | 0.00 | 0.00 | 75 | 1010.5 |
| 20260505121013 | 61 | 0 | 0.0 | 0.0 | 0.00 | 0.00 | 0.00 | 75 | 1010.5 |
| 20260505120513 | 60 | 0 | 0.0 | 0.0 | 0.00 | 0.00 | 0.00 | 78 | 1010.4 |
| 20260505120032 | 60 | 0 | 0.0 | 0.0 | 0.00 | 0.00 | 0.00 | 77 | 1010.3 |
| 20260505115513 | 59 | 0 | 0.0 | 0.0 | 0.00 | 0.00 | 0.00 | 77 | 1010.2 |
| 20260505115037 | 59 | 0 | 0.0 | 0.0 | 0.00 | 0.00 | 0.00 | 76 | 1010.2 |
| 20260505114545 | 59 | 0 | 0.0 | 0.0 | 0.00 | 0.00 | 0.00 | 77 | 1010.3 |
| 20260505114015 | 59 | 0 | 0.0 | 0.0 | 0.00 | 0.00 | 0.00 | 78 | 1010.3 |
| 20260505113513 | 59 | 0 | 0.0 | 0.0 | 0.00 | 0.00 | 0.00 | 78 | 1010.4 |
| 20260505113037 | 59 | 0 | 0.0 | 0.0 | 0.00 | 0.00 | 0.00 | 80 | 1010.2 |
| 20260505112516 | 58 | 0 | 0.0 | 0.0 | 0.00 | 0.00 | 0.00 | 81 | 1010.2 |
| 20260505112020 | 57 | 0 | 0.0 | 0.0 | 0.00 | 0.00 | 0.00 | 81 | 1009.7 |
| 20260505111550 | 56 | 0 | 0.0 | 0.0 | 0.00 | 0.00 | 0.00 | 81 | 1009.6 |
| 20260505111017 | 56 | 0 | 0.0 | 0.0 | 0.00 | 0.00 | 0.00 | 81 | 1009.7 |
| 20260505110513 | 56 | 0 | 0.0 | 0.0 | 0.00 | 0.00 | 0.00 | 81 | 1009.8 |
| 20260505102018 | 55 | 0 | 0.0 | 0.0 | 0.00 | 0.00 | 0.00 | 80 | 1009.8 |
| 20260505101535 | 55 | 0 | 0.0 | 0.0 | 0.00 | 0.00 | 0.00 | 80 | 1009.8 |
| 20260505101019 | 56 | 0 | 0.0 | 0.0 | 0.00 | 0.00 | 0.00 | 79 | 1009.8 |
| 20260505100514 | 56 | 0 | 0.0 | 0.0 | 0.00 | 0.00 | 0.00 | 79 | 1009.5 |
| 20260505100034 | 56 | 0 | 0.0 | 0.0 | 0.00 | 0.00 | 0.00 | 79 | 1009.4 |
| 20260505095514 | 56 | 0 | 0.0 | 0.0 | 0.00 | 0.00 | 0.00 | 79 | 1009.3 |
| 20260505095014 | 56 | 0 | 0.0 | 0.0 | 0.00 | 0.00 | 0.00 | 79 | 1009.3 |
| 20260505094530 | 56 | 0 | 0.0 | 0.0 | 0.00 | 0.00 | 0.00 | 78 | 1009.3 |
| 20260505094017 | 56 | 0 | 0.0 | 0.0 | 0.00 | 0.00 | 0.00 | 78 | 1009.3 |
| 20260505093514 | 56 | 0 | 0.0 | 0.0 | 0.00 | 0.00 | 0.00 | 78 | 1009.4 |
| 20260505093031 | 56 | 0 | 0.0 | 0.0 | 0.00 | 0.00 | 0.00 | 77 | 1009.3 |
| 20260505092516 | 57 | 0 | 0.0 | 0.0 | 0.00 | 0.00 | 0.00 | 76 | 1009.3 |
| 20260505092017 | 57 | 0 | 0.0 | 0.0 | 0.00 | 0.00 | 0.00 | 76 | 1009.3 |
| 20260505091534 | 57 | 0 | 0.0 | 0.0 | 0.00 | 0.00 | 0.00 | 75 | 1009.3 |
| 20260505091015 | 57 | 0 | 0.0 | 0.0 | 0.00 | 0.00 | 0.00 | 75 | 1009.3 |
| 20260505090514 | 58 | 0 | 0.0 | 0.0 | 0.00 | 0.00 | 0.00 | 75 | 1009.4 |
| 20260505090037 | 58 | 0 | 0.0 | 0.0 | 0.00 | 0.00 | 0.00 | 74 | 1009.4 |
| 20260505085512 | 58 | 0 | 0.0 | 0.0 | 0.00 | 0.00 | 0.00 | 73 | 1009.4 |
| 20260505085017 | 58 | 0 | 0.0 | 0.0 | 0.00 | 0.00 | 0.00 | 73 | 1009.4 |
| 20260505084531 | 58 | 0 | 0.0 | 3.0 | 0.00 | 0.00 | 0.00 | 73 | 1009.4 |
| 20260505084012 | 58 | 0 | 0.0 | 3.0 | 0.00 | 0.00 | 0.00 | 73 | 1009.2 |
| 20260505083515 | 58 | 0 | 0.0 | 3.0 | 0.00 | 0.00 | 0.00 | 73 | 1009.2 |
| 20260505083040 | 59 | 0 | 0.0 | 0.0 | 0.00 | 0.00 | 0.00 | 72 | 1009.2 |
| 20260505082514 | 59 | 0 | 0.0 | 1.0 | 0.00 | 0.00 | 0.00 | 72 | 1009.1 |
| 20260505082012 | 59 | 0 | 0.0 | 1.0 | 0.00 | 0.00 | 0.00 | 72 | 1009.2 |
| 20260505081537 | 59 | 0 | 0.0 | 0.0 | 0.00 | 0.00 | 0.00 | 73 | 1009.1 |
| 20260505081021 | 58 | 0 | 0.0 | 0.0 | 0.00 | 0.00 | 0.00 | 73 | 1009.0 |
| 20260505080514 | 58 | 0 | 0.0 | 3.0 | 0.00 | 0.00 | 0.00 | 73 | 1009.0 |
| 20260505080036 | 58 | 0 | 0.0 | 3.0 | 0.00 | 0.00 | 0.00 | 73 | 1009.1 |
| 20260505075514 | 58 | 0 | 0.0 | 0.0 | 0.00 | 0.00 | 0.00 | 74 | 1009.0 |
| 20260505075017 | 58 | 0 | 0.0 | 0.0 | 0.00 | 0.00 | 0.00 | 73 | 1008.9 |
| 20260505074533 | 58 | 0 | 0.0 | 0.0 | 0.00 | 0.00 | 0.00 | 73 | 1008.9 |
| 20260505074014 | 58 | 0 | 0.0 | 0.0 | 0.00 | 0.00 | 0.00 | 72 | 1009.0 |
| 20260505073515 | 58 | 0 | 0.0 | 0.0 | 0.00 | 0.00 | 0.00 | 72 | 1009.0 |
| 20260505073032 | 58 | 0 | 0.0 | 0.0 | 0.00 | 0.00 | 0.00 | 72 | 1009.0 |
| 20260505072514 | 58 | 0 | 0.0 | 0.0 | 0.00 | 0.00 | 0.00 | 71 | 1008.9 |
| 20260505072014 | 59 | 0 | 0.0 | 0.0 | 0.00 | 0.00 | 0.00 | 71 | 1008.9 |
| 20260505071537 | 59 | 0 | 0.0 | 0.0 | 0.00 | 0.00 | 0.00 | 71 | 1008.9 |
| 20260505071016 | 59 | 0 | 0.0 | 0.0 | 0.00 | 0.00 | 0.00 | 71 | 1008.9 |
| 20260505070515 | 59 | 0 | 0.0 | 0.0 | 0.00 | 0.00 | 0.00 | 70 | 1008.9 |
| 20260505070039 | 60 | 0 | 0.0 | 0.0 | 0.00 | 0.00 | 0.00 | 69 | 1008.8 |
| 20260505065513 | 60 | 0 | 0.0 | 0.0 | 0.00 | 0.00 | 0.00 | 69 | 1008.8 |
| 20260505065014 | 60 | 0 | 0.0 | 0.0 | 0.00 | 0.00 | 0.00 | 69 | 1008.8 |
| 20260505064550 | 60 | 0 | 0.0 | 0.0 | 0.00 | 0.00 | 0.00 | 69 | 1008.8 |
| 20260505064013 | 60 | 0 | 0.0 | 0.0 | 0.00 | 0.00 | 0.00 | 69 | 1008.8 |
| 20260505063515 | 60 | 0 | 0.0 | 0.0 | 0.00 | 0.00 | 0.00 | 68 | 1008.9 |
| 20260505063031 | 60 | 0 | 0.0 | 0.0 | 0.00 | 0.00 | 0.00 | 67 | 1008.9 |
| 20260505062513 | 60 | 0 | 0.0 | 0.0 | 0.00 | 0.00 | 0.00 | 67 | 1008.8 |
| 20260505062014 | 60 | 0 | 0.0 | 0.0 | 0.00 | 0.00 | 0.00 | 66 | 1008.8 |
| 20260505061538 | 60 | 0 | 0.0 | 0.0 | 0.00 | 0.00 | 0.00 | 66 | 1008.9 |
| 20260505061016 | 60 | 0 | 0.0 | 0.0 | 0.00 | 0.00 | 0.00 | 66 | 1009.0 |
| 20260505060515 | 60 | 0 | 0.0 | 0.0 | 0.00 | 0.00 | 0.00 | 66 | 1009.0 |
| 20260505060032 | 60 | 0 | 0.0 | 0.0 | 0.00 | 0.00 | 0.00 | 67 | 1009.1 |
| 20260505055513 | 60 | 0 | 0.0 | 0.0 | 0.00 | 0.00 | 0.00 | 68 | 1009.0 |
| 20260505055014 | 61 | 0 | 0.0 | 0.0 | 0.00 | 0.00 | 0.00 | 68 | 1009.0 |
| 20260505054530 | 61 | 0 | 0.0 | 0.0 | 0.00 | 0.00 | 0.00 | 65 | 1009.0 |
| 20260505054017 | 61 | 0 | 0.0 | 0.0 | 0.00 | 0.00 | 0.00 | 65 | 1009.1 |
| 20260505053517 | 61 | 0 | 0.0 | 0.0 | 0.00 | 0.00 | 0.00 | 65 | 1009.1 |
| 20260505053030 | 61 | 0 | 0.0 | 0.0 | 0.00 | 0.00 | 0.00 | 65 | 1009.2 |
| 20260505052513 | 61 | 0 | 0.0 | 0.0 | 0.00 | 0.00 | 0.00 | 64 | 1009.3 |
| 20260505052014 | 61 | 0 | 0.0 | 0.0 | 0.00 | 0.00 | 0.00 | 63 | 1009.2 |
| 20260505051532 | 62 | 0 | 0.0 | 0.0 | 0.00 | 0.00 | 0.00 | 63 | 1009.2 |
| 20260505051013 | 62 | 0 | 0.0 | 0.0 | 0.00 | 0.00 | 0.00 | 62 | 1009.1 |
| 20260505050516 | 62 | 0 | 0.0 | 0.0 | 0.00 | 0.00 | 0.00 | 62 | 1009.2 |
| 20260505041534 | 63 | 0 | 0.0 | 0.0 | 0.00 | 0.00 | 0.00 | 59 | 1009.0 |
| 20260505041012 | 63 | 0 | 0.0 | 3.0 | 0.00 | 0.00 | 0.00 | 58 | 1008.9 |
| 20260505040511 | 64 | 0 | 0.0 | 4.0 | 0.00 | 0.00 | 0.00 | 58 | 1008.8 |
| 20260505040031 | 64 | 0 | 0.0 | 4.0 | 0.00 | 0.00 | 0.00 | 58 | 1008.7 |
| 20260505035512 | 64 | 0 | 0.0 | 0.0 | 0.00 | 0.00 | 0.00 | 57 | 1008.7 |
| 20260505035017 | 64 | 0 | 0.0 | 0.0 | 0.00 | 0.00 | 0.00 | 57 | 1008.8 |
| 20260505034533 | 64 | 0 | 0.0 | 0.0 | 0.00 | 0.00 | 0.00 | 56 | 1008.8 |
| 20260505034017 | 64 | 0 | 0.0 | 0.0 | 0.00 | 0.00 | 0.00 | 56 | 1008.8 |
| 20260505033515 | 64 | 0 | 0.0 | 0.0 | 0.00 | 0.00 | 0.00 | 56 | 1008.8 |
| 20260505033035 | 64 | 0 | 0.0 | 0.0 | 0.00 | 0.00 | 0.00 | 56 | 1008.8 |
| 20260505032512 | 65 | 0 | 0.0 | 0.0 | 0.00 | 0.00 | 0.00 | 55 | 1008.8 |
| 20260505032016 | 65 | 0 | 0.0 | 0.0 | 0.00 | 0.00 | 0.00 | 55 | 1008.6 |
| 20260505031530 | 65 | 0 | 0.0 | 0.0 | 0.00 | 0.00 | 0.00 | 55 | 1008.6 |
| 20260505031011 | 65 | 0 | 0.0 | 0.0 | 0.00 | 0.00 | 0.00 | 56 | 1008.7 |
| 20260505030511 | 65 | 0 | 0.0 | 0.0 | 0.00 | 0.00 | 0.00 | 55 | 1008.8 |
| 20260505030030 | 65 | 0 | 0.0 | 1.0 | 0.00 | 0.00 | 0.00 | 55 | 1008.8 |
| 20260505025515 | 66 | 0 | 0.0 | 1.0 | 0.00 | 0.00 | 0.00 | 54 | 1008.8 |
| 20260505025012 | 66 | 0 | 0.0 | 5.0 | 0.00 | 0.00 | 0.00 | 53 | 1008.8 |
| 20260505024541 | 66 | 0 | 0.0 | 5.0 | 0.00 | 0.00 | 0.00 | 53 | 1008.7 |
| 20260505024012 | 66 | 0 | 0.0 | 2.0 | 0.00 | 0.00 | 0.00 | 52 | 1008.7 |
| 20260505023512 | 66 | 0 | 0.0 | 5.0 | 0.00 | 0.00 | 0.00 | 52 | 1008.6 |
| 20260505023030 | 67 | 0 | 0.0 | 5.0 | 0.00 | 0.00 | 0.00 | 52 | 1008.6 |
| 20260505022521 | 67 | 0 | 0.0 | 6.0 | 0.00 | 0.00 | 0.00 | 52 | 1008.6 |
| 20260505022013 | 67 | 0 | 0.0 | 6.0 | 0.00 | 0.00 | 0.00 | 52 | 1008.6 |
| 20260505021537 | 67 | 211 | 0.0 | 5.0 | 0.00 | 0.00 | 0.00 | 51 | 1008.6 |
| 20260505021015 | 67 | 0 | 0.0 | 5.0 | 0.00 | 0.00 | 0.00 | 51 | 1008.6 |
| 20260505020514 | 67 | 0 | 0.0 | 3.0 | 0.00 | 0.00 | 0.00 | 51 | 1008.6 |
| 20260505020032 | 67 | 0 | 0.0 | 4.0 | 0.00 | 0.00 | 0.00 | 50 | 1008.6 |
| 20260505015512 | 67 | 0 | 0.0 | 4.0 | 0.00 | 0.00 | 0.00 | 50 | 1008.6 |
| 20260505015019 | 68 | 0 | 0.0 | 5.0 | 0.00 | 0.00 | 0.00 | 51 | 1008.6 |
| 20260505014538 | 68 | 0 | 0.0 | 5.0 | 0.00 | 0.00 | 0.00 | 49 | 1008.6 |
| 20260505014014 | 68 | 0 | 0.0 | 9.0 | 0.00 | 0.00 | 0.00 | 49 | 1008.6 |
| 20260505013517 | 68 | 0 | 0.0 | 9.0 | 0.00 | 0.00 | 0.00 | 48 | 1008.6 |
| 20260505013032 | 68 | 188 | 0.0 | 6.0 | 0.00 | 0.00 | 0.00 | 48 | 1008.5 |
| 20260505012514 | 68 | 215 | 1.0 | 7.0 | 0.00 | 0.00 | 0.00 | 48 | 1008.3 |
| 20260505012015 | 68 | 0 | 0.0 | 7.0 | 0.00 | 0.00 | 0.00 | 48 | 1008.3 |
| 20260505011534 | 68 | 192 | 0.0 | 7.0 | 0.00 | 0.00 | 0.00 | 48 | 1008.3 |
| 20260505011015 | 68 | 211 | 1.0 | 7.0 | 0.00 | 0.00 | 0.00 | 48 | 1008.4 |
| 20260505010515 | 68 | 225 | 0.0 | 5.0 | 0.00 | 0.00 | 0.00 | 48 | 1008.2 |
| 20260505010031 | 68 | 0 | 0.0 | 7.0 | 0.00 | 0.00 | 0.00 | 48 | 1008.2 |
| 20260505005514 | 68 | 0 | 0.0 | 7.0 | 0.00 | 0.00 | 0.00 | 49 | 1008.2 |
| 20260505005016 | 68 | 219 | 0.0 | 7.0 | 0.00 | 0.00 | 0.00 | 48 | 1008.2 |
| 20260505004531 | 68 | 0 | 0.0 | 4.0 | 0.00 | 0.00 | 0.00 | 48 | 1008.1 |
| 20260505004014 | 68 | 0 | 0.0 | 8.0 | 0.00 | 0.00 | 0.00 | 48 | 1008.1 |
| 20260505003516 | 69 | 0 | 0.0 | 8.0 | 0.00 | 0.00 | 0.00 | 47 | 1008.0 |
| 20260505003032 | 69 | 225 | 2.0 | 11.0 | 0.00 | 0.00 | 0.00 | 47 | 1008.1 |
| 20260505002518 | 69 | 0 | 1.0 | 11.0 | 0.00 | 0.00 | 0.00 | 48 | 1008.0 |
| 20260505002015 | 69 | 236 | 0.0 | 5.0 | 0.00 | 0.00 | 0.00 | 48 | 1007.9 |
| 20260505001540 | 69 | 0 | 0.0 | 7.0 | 0.00 | 0.00 | 0.00 | 47 | 1008.0 |
| 20260505001015 | 69 | 0 | 0.0 | 7.0 | 0.00 | 0.00 | 0.00 | 47 | 1008.0 |
| 20260505000514 | 69 | 246 | 2.0 | 7.0 | 0.00 | 0.00 | 0.00 | 46 | 1007.9 |
| 20260505000039 | 69 | 0 | 0.0 | 8.0 | 0.00 | 0.00 | 0.00 | 47 | 1008.0 |
| 20260504235515 | 69 | 209 | 0.0 | 8.0 | 0.00 | 0.00 | 0.00 | 46 | 1007.8 |
| 20260504235016 | 70 | 220 | 0.0 | 8.0 | 0.00 | 0.00 | 0.00 | 46 | 1007.9 |
| 20260504234531 | 70 | 0 | 0.0 | 14.0 | 0.00 | 0.00 | 0.00 | 46 | 1007.9 |
| 20260504234015 | 70 | 0 | 0.0 | 14.0 | 0.00 | 0.00 | 0.00 | 45 | 1007.8 |
| 20260504233515 | 70 | 207 | 2.0 | 12.0 | 0.00 | 0.00 | 0.00 | 45 | 1007.7 |
| 20260504233035 | 71 | 237 | 1.0 | 8.0 | 0.00 | 0.00 | 0.00 | 46 | 1007.6 |
| 20260504232514 | 71 | 192 | 2.0 | 8.0 | 0.00 | 0.00 | 0.00 | 46 | 1007.6 |
| 20260504232016 | 71 | 0 | 1.0 | 9.0 | 0.00 | 0.00 | 0.00 | 46 | 1007.6 |
| 20260504231540 | 71 | 0 | 2.0 | 10.0 | 0.00 | 0.00 | 0.00 | 45 | 1007.6 |
| 20260504231014 | 71 | 0 | 1.0 | 10.0 | 0.00 | 0.00 | 0.00 | 44 | 1007.6 |
| 20260504230518 | 71 | 0 | 0.0 | 15.0 | 0.00 | 0.00 | 0.00 | 44 | 1007.7 |
| 20260504230032 | 71 | 204 | 2.0 | 15.0 | 0.00 | 0.00 | 0.00 | 44 | 1007.6 |
| 20260504225515 | 72 | 212 | 3.0 | 15.0 | 0.00 | 0.00 | 0.00 | 44 | 1007.6 |
| 20260504225015 | 72 | 0 | 1.0 | 15.0 | 0.00 | 0.00 | 0.00 | 44 | 1007.5 |
| 20260504224537 | 72 | 219 | 2.0 | 15.0 | 0.00 | 0.00 | 0.00 | 43 | 1007.6 |
| 20260504224018 | 72 | 0 | 2.0 | 10.0 | 0.00 | 0.00 | 0.00 | 44 | 1007.6 |
| 20260504223519 | 72 | 196 | 2.0 | 10.0 | 0.00 | 0.00 | 0.00 | 43 | 1007.6 |
| 20260504223030 | 73 | 0 | 1.0 | 14.0 | 0.00 | 0.00 | 0.00 | 43 | 1007.7 |
| 20260504222513 | 73 | 0 | 0.0 | 14.0 | 0.00 | 0.00 | 0.00 | 44 | 1007.6 |
| 20260504222014 | 73 | 222 | 3.0 | 14.0 | 0.00 | 0.00 | 0.00 | 42 | 1007.6 |
| 20260504221533 | 73 | 212 | 2.0 | 16.0 | 0.00 | 0.00 | 0.00 | 42 | 1007.6 |
| 20260504221015 | 73 | 249 | 3.0 | 16.0 | 0.00 | 0.00 | 0.00 | 41 | 1007.6 |
| 20260504220515 | 74 | 217 | 3.0 | 11.0 | 0.00 | 0.00 | 0.00 | 42 | 1007.5 |
| 20260504220035 | 74 | 0 | 0.0 | 12.0 | 0.00 | 0.00 | 0.00 | 40 | 1007.5 |
| 20260504215515 | 74 | 0 | 3.0 | 13.0 | 0.00 | 0.00 | 0.00 | 39 | 1007.5 |
| 20260504215012 | 75 | 196 | 3.0 | 13.0 | 0.00 | 0.00 | 0.00 | 38 | 1007.5 |
| 20260504214531 | 75 | 0 | 1.0 | 11.0 | 0.00 | 0.00 | 0.00 | 39 | 1007.5 |
| 20260504214016 | 75 | 207 | 1.0 | 11.0 | 0.00 | 0.00 | 0.00 | 38 | 1007.5 |
| 20260504213514 | 75 | 0 | 0.0 | 9.0 | 0.00 | 0.00 | 0.00 | 40 | 1007.6 |
| 20260504213030 | 75 | 0 | 1.0 | 9.0 | 0.00 | 0.00 | 0.00 | 40 | 1007.5 |
| 20260504212514 | 75 | 0 | 0.0 | 5.0 | 0.00 | 0.00 | 0.00 | 38 | 1007.5 |
| 20260504212015 | 75 | 227 | 1.0 | 18.0 | 0.00 | 0.00 | 0.00 | 38 | 1007.6 |
| 20260504211531 | 75 | 0 | 0.0 | 18.0 | 0.00 | 0.00 | 0.00 | 39 | 1007.6 |
| 20260504211014 | 75 | 252 | 4.0 | 18.0 | 0.00 | 0.00 | 0.00 | 37 | 1007.5 |
| 20260504210514 | 75 | 227 | 1.0 | 12.0 | 0.00 | 0.00 | 0.00 | 37 | 1007.6 |
| 20260504210051 | 75 | 0 | 2.0 | 8.0 | 0.00 | 0.00 | 0.00 | 39 | 1007.4 |
| 20260504205515 | 75 | 192 | 1.0 | 11.0 | 0.00 | 0.00 | 0.00 | 40 | 1007.6 |
| 20260504205014 | 75 | 194 | 1.0 | 15.0 | 0.00 | 0.00 | 0.00 | 39 | 1007.6 |
| 20260504204534 | 75 | 0 | 1.0 | 15.0 | 0.00 | 0.00 | 0.00 | 38 | 1007.6 |
| 20260504204014 | 75 | 0 | 1.0 | 12.0 | 0.00 | 0.00 | 0.00 | 39 | 1007.7 |
| 20260504203515 | 75 | 185 | 2.0 | 16.0 | 0.00 | 0.00 | 0.00 | 39 | 1007.8 |
| 20260504203035 | 75 | 189 | 1.0 | 16.0 | 0.00 | 0.00 | 0.00 | 39 | 1007.9 |
| 20260504202515 | 75 | 0 | 0.0 | 13.0 | 0.00 | 0.00 | 0.00 | 40 | 1007.9 |
| 20260504202016 | 74 | 0 | 0.0 | 12.0 | 0.00 | 0.00 | 0.00 | 40 | 1008.0 |
| 20260504201531 | 74 | 217 | 1.0 | 15.0 | 0.00 | 0.00 | 0.00 | 39 | 1008.1 |
| 20260504201012 | 74 | 315 | 4.0 | 15.0 | 0.00 | 0.00 | 0.00 | 38 | 1008.2 |